GW5459 Weather Reports


time (UTC)temp
C
wind
direction
speed
KPH
gust
KPH
rain 1hr
cm
rain 24hr
cm
rain mn
cm
humidity
%
barometer
mb
20260506114203 8 348 0.0 0.0 0.00 0.00 0.00 69 1003.0
20260506113703 8 348 3.2 3.2 0.00 0.00 0.00 68 1003.0
20260506113203 8 346 0.0 0.0 0.00 0.00 0.00 69 1003.0
20260506112702 8 346 0.0 0.0 0.00 0.00 0.00 69 1003.0
20260506112206 7 348 0.0 0.0 0.00 0.00 0.00 69 1003.0
20260506111702 8 342 0.0 0.0 0.00 0.00 0.00 69 1003.0
20260506111203 7 180 0.0 0.0 0.00 0.00 0.00 70 1003.0
20260506110702 8 186 3.2 3.2 0.00 0.00 0.00 69 1003.0
20260506110204 7 186 0.0 0.0 0.00 0.00 0.00 70 1003.0
20260506105702 8 186 0.0 0.0 0.00 0.00 0.00 70 1002.0
20260506105203 8 186 0.0 0.0 0.00 0.00 0.00 69 1002.0
20260506104702 8 186 0.0 0.0 0.00 0.00 0.00 68 1002.0
20260506104204 8 186 0.0 0.0 0.00 0.00 0.00 67 1002.0
20260506103702 8 186 0.0 0.0 0.00 0.00 0.00 67 1002.0
20260506103202 8 186 0.0 0.0 0.00 0.00 0.00 66 1002.0
20260506102705 8 186 0.0 0.0 0.00 0.00 0.00 66 1002.0
20260506102202 8 186 0.0 0.0 0.00 0.00 0.00 64 1002.0
20260506101702 8 186 0.0 0.0 0.00 0.00 0.00 65 1002.0
20260506101203 8 186 0.0 0.0 0.00 0.00 0.00 67 1002.0
20260506100702 8 186 0.0 0.0 0.00 0.00 0.00 64 1002.0
20260506100203 8 186 0.0 0.0 0.00 0.00 0.00 64 1002.0
20260506095702 8 186 0.0 0.0 0.00 0.00 0.00 62 1002.0
20260506095203 8 186 0.0 0.0 0.00 0.00 0.00 62 1002.0
20260506094702 8 186 1.6 1.6 0.00 0.00 0.00 61 1002.0
20260506094202 8 186 0.0 0.0 0.00 0.00 0.00 63 1002.0
20260506093702 8 186 0.0 0.0 0.00 0.00 0.00 61 1002.0
20260506093206 8 186 0.0 0.0 0.00 0.00 0.00 61 1002.0
20260506092705 8 186 0.0 0.0 0.00 0.00 0.00 61 1002.0
20260506092203 8 186 0.0 0.0 0.00 0.00 0.00 60 1002.0
20260506091702 8 186 0.0 0.0 0.00 0.00 0.00 60 1002.0
20260506091202 8 186 0.0 0.0 0.00 0.00 0.00 59 1001.0
20260506090704 8 186 0.0 0.0 0.00 0.00 0.00 59 1001.0
20260506090203 8 186 0.0 0.0 0.00 0.00 0.00 58 1001.0
20260506085702 8 186 0.0 0.0 0.00 0.00 0.00 58 1001.0
20260506085203 8 186 3.2 3.2 0.00 0.00 0.00 58 1001.0
20260506084702 8 192 0.0 0.0 0.00 0.00 0.00 59 1001.0
20260506084202 8 192 0.0 0.0 0.00 0.00 0.00 59 1001.0
20260506083703 9 197 0.0 0.0 0.00 0.00 0.00 57 1001.0
20260506083202 9 204 1.6 1.6 0.00 0.00 0.00 58 1001.0
20260506082704 9 210 0.0 0.0 0.00 0.00 0.00 58 1001.0
20260506082202 9 190 0.0 0.0 0.00 0.00 0.00 57 1001.0
20260506081703 9 186 4.8 4.8 0.00 0.00 0.00 57 1001.0
20260506081202 9 282 1.6 1.6 0.00 0.00 0.00 57 1001.0
20260506080702 9 300 0.0 0.0 0.00 0.00 0.00 58 1001.0
20260506080203 9 336 0.0 0.0 0.00 0.00 0.00 58 1001.0
20260506073203 8 270 0.0 0.0 0.00 0.00 0.00 61 1001.0
20260506072703 9 270 0.0 0.0 0.00 0.00 0.00 61 1001.0
20260506072203 9 270 0.0 0.0 0.00 0.00 0.00 61 1001.0
20260506071702 9 270 0.0 0.0 0.00 0.00 0.00 59 1001.0
20260506071202 9 270 0.0 0.0 0.00 0.00 0.00 61 1001.0
20260506070704 9 269 0.0 0.0 0.00 0.00 0.00 60 1001.0
20260506070204 9 269 0.0 0.0 0.00 0.00 0.00 59 1001.0
20260506062204 9 276 0.0 0.0 0.00 0.00 0.00 59 1002.0
20260506061705 9 276 0.0 0.0 0.00 0.00 0.00 59 1002.0
20260506061204 10 278 3.2 3.2 0.00 0.00 0.00 59 1002.0
20260506060702 9 282 0.0 0.0 0.00 0.00 0.00 58 1002.0
20260506060202 9 282 1.6 1.6 0.00 0.00 0.00 57 1002.0
20260506051204 10 282 3.2 3.2 0.00 0.00 0.00 55 1002.0
20260506050705 10 282 0.0 0.0 0.00 0.00 0.00 56 1002.0
20260506050205 10 282 0.0 0.0 0.00 0.00 0.00 56 1002.0
20260506044703 10 282 0.0 0.0 0.00 0.00 0.00 54 1002.0
20260506044202 10 282 0.0 0.0 0.00 0.00 0.00 53 1001.0
20260506043703 10 282 0.0 0.0 0.00 0.00 0.00 53 1001.0
20260506043204 10 282 0.0 0.0 0.00 0.00 0.00 53 1001.0
20260506042704 10 282 0.0 0.0 0.00 0.00 0.00 53 1001.0
20260506042202 10 282 0.0 0.0 0.00 0.00 0.00 56 1001.0
20260506041702 10 282 0.0 0.0 0.00 0.00 0.00 56 1001.0
20260506041204 10 282 3.2 3.2 0.00 0.00 0.00 54 1001.0
20260506040702 10 282 0.0 0.0 0.00 0.00 0.00 53 1001.0
20260506040204 10 282 0.0 0.0 0.00 0.00 0.00 54 1001.0
20260506035702 10 282 0.0 0.0 0.00 0.00 0.00 53 1001.0
20260506035203 10 282 0.0 0.0 0.00 0.00 0.00 53 1001.0
20260506034703 10 282 0.0 0.0 0.00 0.00 0.00 52 1001.0
20260506034203 10 282 0.0 0.0 0.00 0.00 0.00 53 1001.0
20260506033702 10 282 0.0 0.0 0.00 0.00 0.00 51 1001.0
20260506033202 10 282 0.0 0.0 0.00 0.00 0.00 50 1001.0
20260506032705 10 282 0.0 0.0 0.00 0.00 0.00 52 1002.0
20260506032203 10 282 0.0 0.0 0.00 0.00 0.00 50 1002.0
20260506031703 10 282 0.0 0.0 0.00 0.00 0.00 50 1002.0
20260506031205 10 282 1.6 1.6 0.00 0.00 0.00 49 1002.0
20260506030705 10 282 0.0 0.0 0.00 0.00 0.00 49 1002.0
20260506030202 10 282 0.0 0.0 0.00 0.00 0.00 48 1002.0
20260506025705 10 282 0.0 0.0 0.00 0.00 0.00 49 1001.0
20260506025205 10 282 0.0 0.0 0.00 0.00 0.00 48 1001.0
20260506024703 10 282 0.0 0.0 0.00 0.00 0.00 47 1001.0
20260506024202 10 240 0.0 0.0 0.00 0.00 0.00 49 1001.0
20260506023703 11 240 0.0 0.0 0.00 0.00 0.00 48 1001.0
20260506023202 11 12 0.0 0.0 0.00 0.00 0.00 48 1001.0
20260506022704 11 12 1.6 1.6 0.00 0.00 0.00 47 1002.0
20260506022202 11 12 0.0 0.0 0.00 0.00 0.00 46 1002.0
20260506021702 11 282 1.6 1.6 0.00 0.00 0.00 46 1002.0
20260506021202 11 282 0.0 0.0 0.00 0.00 0.00 46 1001.0
20260506020702 11 282 0.0 0.0 0.00 0.00 0.00 45 1001.0
20260506020202 11 284 3.2 3.2 0.00 0.00 0.00 45 1001.0
20260506015702 11 234 0.0 0.0 0.00 0.00 0.00 45 1001.0
20260506015203 11 234 0.0 0.0 0.00 0.00 0.00 44 1001.0
20260506014702 11 252 0.0 0.0 0.00 0.00 0.00 44 1001.0
20260506014202 11 300 0.0 0.0 0.00 0.00 0.00 45 1001.0
20260506013702 11 300 1.6 1.6 0.00 0.00 0.00 45 1001.0
20260506013203 11 324 0.0 0.0 0.00 0.00 0.00 47 1001.0
20260506012702 11 324 1.6 1.6 0.00 0.00 0.00 45 1001.0
20260506012202 11 324 1.6 1.6 0.00 0.00 0.00 46 1001.0
20260506011702 11 246 0.0 0.0 0.00 0.00 0.00 44 1001.0
20260506011202 11 245 3.2 3.2 0.00 0.00 0.00 44 1001.0
20260506010703 11 252 3.2 3.2 0.00 0.00 0.00 44 1001.0
20260506010204 11 256 3.2 3.2 0.00 0.00 0.00 48 1001.0
20260506005702 11 243 3.2 3.2 0.00 0.00 0.00 49 1001.0
20260506005205 11 0 0.0 0.0 0.00 0.00 0.00 49 1001.0
20260506004702 11 257 3.2 3.2 0.00 0.00 0.00 48 1001.0
20260506004202 11 270 0.0 0.0 0.00 0.00 0.00 53 1001.0
20260506003702 11 282 3.2 3.2 0.00 0.00 0.00 52 1001.0
20260506003202 11 282 0.0 0.0 0.00 0.00 0.00 51 1001.0
20260506002703 11 282 0.0 0.0 0.00 0.00 0.00 51 1001.0
20260506002202 11 270 4.8 4.8 0.00 0.00 0.00 51 1001.0
20260506001702 12 229 0.0 0.0 0.00 0.00 0.00 50 1001.0
20260506001203 11 252 0.0 0.0 0.00 0.00 0.00 51 1001.0
20260506000704 12 252 3.2 3.2 0.00 0.00 0.00 50 1001.0
20260506000204 12 306 0.0 0.0 0.00 0.00 0.00 51 1001.0
20260505235702 12 202 4.8 4.8 0.00 0.00 0.00 51 1000.0
20260505235203 12 289 1.6 1.6 0.00 0.00 0.00 50 1000.0
20260505234702 12 198 0.0 0.0 0.00 0.00 0.00 50 1000.0
20260505234202 12 282 3.2 3.2 0.00 0.00 0.00 49 1000.0
20260505233702 12 246 0.0 0.0 0.00 0.00 0.00 52 1000.0
20260505233202 12 306 0.0 0.0 0.00 0.00 0.00 51 1000.0
20260505232702 12 258 0.0 0.0 0.00 0.00 0.00 51 1000.0
20260505232202 12 252 3.2 3.2 0.00 0.00 0.00 52 1000.0
20260505231704 12 252 4.8 4.8 0.00 0.00 0.00 54 1000.0
20260505231204 12 229 3.2 3.2 0.00 0.00 0.00 53 1000.0
20260505230705 12 354 3.2 3.2 0.00 0.00 0.00 54 1000.0
20260505230205 12 258 4.8 4.8 0.00 0.00 0.00 54 1000.0
20260505225702 12 252 0.0 0.0 0.00 0.00 0.00 57 1000.0
20260505225203 12 252 0.0 0.0 0.00 0.00 0.00 58 1000.0
20260505224704 12 246 3.2 3.2 0.00 0.00 0.00 61 1000.0
20260505224202 12 245 1.6 1.6 0.00 0.00 0.00 64 1000.0
20260505223702 12 240 0.0 0.0 0.00 0.00 0.00 64 1000.0
20260505223203 12 313 3.2 3.2 0.00 0.00 0.00 65 1000.0
20260505222702 13 246 0.0 0.0 0.00 0.00 0.00 64 1000.0
20260505222202 13 246 1.6 1.6 0.00 0.00 0.00 64 1000.0
20260505221702 13 246 1.6 1.6 0.00 0.00 0.00 64 1000.0
20260505221202 13 246 3.2 3.2 0.00 0.00 0.00 66 1000.0
20260505220703 13 256 3.2 3.2 0.00 0.00 0.00 64 1000.0
20260505220202 13 258 3.2 3.2 0.00 0.00 0.00 64 1000.0
20260505215702 13 300 3.2 3.2 0.00 0.00 0.00 64 1000.0
20260505215202 13 257 4.8 4.8 0.00 0.00 0.00 63 1000.0
20260505214703 13 276 1.6 1.6 0.00 0.00 0.00 65 1000.0
20260505214202 13 228 0.0 0.0 0.00 0.00 0.00 66 1000.0
20260505213702 13 238 3.2 3.2 0.00 0.00 0.00 65 1000.0
20260505213202 13 261 0.0 0.0 0.00 0.00 0.00 66 1000.0
20260505212702 13 244 3.2 3.2 0.00 0.00 0.00 65 1000.0
20260505212204 13 276 0.0 0.0 0.00 0.00 0.00 67 1000.0
20260505211703 13 276 3.2 3.2 0.00 0.00 0.00 65 1000.0
20260505211203 13 282 3.2 3.2 0.00 0.00 0.00 67 1000.0
20260505210704 13 243 3.2 3.2 0.00 0.00 0.00 66 1000.0
20260505210202 13 246 4.8 4.8 0.00 0.00 0.00 66 1000.0
20260505205702 13 256 3.2 3.2 0.00 0.00 0.00 67 1000.0
20260505205203 13 294 0.0 0.0 0.00 0.00 0.00 67 1000.0
20260505204702 12 204 3.2 3.2 0.00 0.00 0.00 69 1000.0
20260505204203 12 216 3.2 3.2 0.00 0.00 0.00 69 1000.0
20260505203702 12 217 3.2 3.2 0.00 0.00 0.00 69 1000.0
20260505203202 12 264 6.4 6.4 0.00 0.00 0.00 69 1000.0
20260505202702 13 252 0.0 0.0 0.00 0.00 0.00 70 1000.0
20260505202202 12 252 1.6 1.6 0.00 0.00 0.00 69 1000.0
20260505201703 12 264 6.4 6.4 0.00 0.00 0.00 69 1000.0
20260505201203 12 245 6.4 6.4 0.00 0.00 0.00 69 1000.0
20260505200704 12 228 3.2 3.2 0.00 0.00 0.00 69 1000.0
20260505200202 12 240 4.8 4.8 0.00 0.00 0.00 68 1000.0
20260505195703 12 270 3.2 3.2 0.00 0.00 0.00 70 1000.0
20260505195202 12 252 3.2 3.2 0.00 0.00 0.00 70 1000.0
20260505194703 12 250 4.8 4.8 0.00 0.00 0.00 69 1000.0
20260505194203 12 252 1.6 1.6 0.00 0.00 0.00 69 1001.0
20260505193704 12 262 3.2 3.2 0.00 0.00 0.00 69 1001.0
20260505193202 12 246 3.2 3.2 0.00 0.00 0.00 70 1001.0
20260505192702 12 262 3.2 3.2 0.00 0.00 0.00 70 1001.0
20260505192202 12 270 0.0 0.0 0.00 0.00 0.00 70 1001.0
20260505191702 12 270 0.0 0.0 0.00 0.00 0.00 71 1001.0
20260505191202 12 245 0.0 0.0 0.00 0.00 0.00 69 1001.0
20260505190703 12 234 3.2 3.2 0.00 0.00 0.00 70 1001.0
20260505190203 12 255 3.2 3.2 0.00 0.00 0.00 72 1001.0
20260505185702 12 250 3.2 3.2 0.00 0.00 0.00 71 1001.0
20260505185202 12 214 4.8 4.8 0.00 0.00 0.00 70 1001.0
20260505184702 12 246 4.8 4.8 0.00 0.00 0.00 72 1001.0
20260505184203 12 252 4.8 4.8 0.00 0.00 0.00 72 1000.0
20260505183702 12 240 3.2 3.2 0.00 0.00 0.00 70 1000.0
20260505183203 12 238 3.2 3.2 0.00 0.00 0.00 70 1000.0
20260505182705 12 264 4.8 4.8 0.00 0.00 0.00 72 1000.0
20260505182202 12 240 3.2 3.2 0.00 0.00 0.00 71 1000.0
20260505181705 12 218 4.8 4.8 0.00 0.00 0.00 72 1000.0
20260505181202 12 221 3.2 3.2 0.00 0.00 0.00 74 1000.0
20260505180702 12 222 4.8 6.4 0.00 0.00 0.00 73 1000.0
20260505180202 11 246 4.8 4.8 0.00 0.00 0.00 74 1000.0
20260505175704 11 288 3.2 3.2 0.00 0.00 0.00 76 1000.0
20260505175203 11 250 6.4 6.4 0.00 0.00 0.00 76 1000.0
20260505174702 11 258 3.2 3.2 0.00 0.00 0.00 78 1000.0
20260505174202 11 276 4.8 4.8 0.00 0.00 0.00 80 1000.0
20260505173702 11 252 3.2 3.2 0.00 0.00 0.00 82 1000.0
20260505173202 11 243 1.6 1.6 0.00 0.00 0.00 81 1000.0
20260505172703 11 256 3.2 3.2 0.00 0.00 0.00 78 1000.0
20260505172204 11 214 4.8 4.8 0.00 0.00 0.00 79 1000.0
20260505171702 11 234 4.8 6.4 0.00 0.00 0.00 78 1000.0
20260505171203 11 296 3.2 3.2 0.00 0.00 0.00 79 1000.0
20260505170702 11 262 4.8 4.8 0.00 0.00 0.00 77 1000.0
20260505170202 11 252 3.2 3.2 0.00 0.00 0.00 77 1000.0
20260505165702 11 256 3.2 3.2 0.00 0.00 0.00 78 1000.0
20260505165203 11 249 3.2 3.2 0.00 0.00 0.00 79 1000.0
20260505164703 12 312 3.2 3.2 0.00 0.00 0.00 77 1000.0
20260505164202 12 318 3.2 3.2 0.00 0.00 0.00 73 1000.0
20260505163702 12 42 3.2 3.2 0.00 0.00 0.00 71 1000.0
20260505163203 12 246 6.4 6.4 0.00 0.00 0.00 70 1000.0
20260505162703 12 234 3.2 3.2 0.00 0.00 0.00 70 1000.0
20260505162203 12 268 3.2 3.2 0.00 0.00 0.00 69 1000.0
20260505161702 13 264 3.2 3.2 0.00 0.00 0.00 65 1000.0
20260505161203 13 354 3.2 3.2 0.00 0.00 0.00 64 1000.0
20260505160704 13 246 4.8 6.4 0.00 0.00 0.00 60 1000.0
20260505160202 14 249 3.2 3.2 0.00 0.00 0.00 57 1000.0
20260505153202 14 242 4.8 4.8 0.00 0.00 0.00 53 999.0
20260505152703 14 30 1.6 1.6 0.00 0.00 0.00 54 999.0
20260505152202 15 264 1.6 1.6 0.00 0.00 0.00 54 999.0
20260505151702 15 234 6.4 6.4 0.00 0.00 0.00 52 999.0
20260505151203 15 176 4.8 4.8 0.00 0.00 0.00 53 999.0
20260505150705 15 234 4.8 4.8 0.00 0.00 0.00 51 999.0
20260505150203 15 158 3.2 3.2 0.00 0.00 0.00 52 999.0
20260505140203 16 335 3.2 3.2 0.00 0.00 0.00 59 997.0
20260505130203 16 294 3.2 3.2 0.00 0.00 0.00 74 996.0
20260505124704 16 228 6.4 8.0 0.00 0.00 0.00 78 996.0
20260505124202 15 216 3.2 3.2 0.00 0.00 0.00 79 996.0
20260505123703 15 174 4.8 4.8 0.00 0.00 0.00 81 996.0
20260505123203 15 196 3.2 3.2 0.00 0.00 0.00 81 996.0
20260505122702 15 186 9.7 9.7 0.00 0.00 0.00 83 997.0
20260505122202 15 186 4.8 4.8 0.00 0.00 0.00 84 997.0
20260505121702 15 186 6.4 6.4 0.00 0.00 0.00 84 997.0
20260505121202 15 186 11.3 11.3 0.00 0.00 0.00 85 997.0
20260505120703 15 186 3.2 3.2 0.00 0.00 0.00 85 997.0
20260505120202 14 186 3.2 3.2 0.00 0.00 0.00 86 997.0
20260505115704 14 186 3.2 3.2 0.00 0.00 0.00 86 996.0
20260505115202 14 186 6.4 6.4 0.00 0.00 0.00 86 996.0
20260505114703 14 186 0.0 0.0 0.00 0.00 0.00 87 996.0